Weather History for PACV - October, 2012

Change the Weather History Date:

Monday, October 8, 2012

  Actual Average Record
Temperature  
Mean Temperature 45 °F -  
Max Temperature 55 °F 49 °F 62 °F (1967)
Min Temperature 35 °F 35 °F 19 °F (1958)
Degree Days  
Heating Degree Days 20    
Moisture  
Dew Point 41 °F    
Average Humidity 94    
Maximum Humidity 100    
Minimum Humidity 74    
Precipitation  
Precipitation 0.00 in - - ()
Sea Level Pressure  
Sea Level Pressure 30.23 in    
Wind  
Wind Speed 1 mph (East)    
Max Wind Speed 8 mph    
Max Gust Speed -    
Visibility 4 miles    
Events Fog , Rain    
Averages and records for this station are not official NWS values.
T = Trace of Precipitation, MM = Missing Value Source: NWS Daily Summary

Daily Weather History Graph

Daily Weather History Graph

Search for Another Location

Airport or City:

Trip Planner

Search our weather history database for the weather conditions in past years. The results will help you decide how hot, cold, wet, or windy it might be!

Date:

Astronomy

Oct. 08, 2012 Rise Set
Actual Time 8:06 AM AKDT 6:50 PM AKDT
Civil Twilight 7:24 AM AKDT 7:32 PM AKDT
Nautical Twilight 6:35 AM AKDT 8:21 PM AKDT
Astronomical Twilight 5:44 AM AKDT 9:11 PM AKDT
Moon No Moon Rise 4:20 PM AKDT (10/8)
Length of Visible Light 12h 08m
Length of Day
10h 43m
Last Quarter, 45% of the Moon is Illuminated
Oct 8
Last Quarter
Oct 15
New
Oct 21
First Quarter
Oct 29
Full
Nov 6
Last Quarter

Hourly Weather History & Observations

Time (AKDT) Temp. Windchill Dew Point Humidity Pressure Visibility Wind Dir Wind Speed Gust Speed Precip Events Conditions
12:53 AM 43.0 °F - 42.1 °F 97% 30.31 in 5.0 mi Calm Calm - N/A   Mostly Cloudy
1:38 AM 42.8 °F - 41.0 °F 93% 30.30 in 1.8 mi Calm Calm - N/A   Overcast
1:53 AM 42.1 °F - 41.0 °F 96% 30.30 in 1.5 mi Calm Calm - N/A   Overcast
2:07 AM 41.0 °F - 39.2 °F 93% 30.29 in 5.0 mi Calm Calm - N/A   Overcast
2:53 AM 39.9 °F - 39.0 °F 97% 30.29 in 5.0 mi Calm Calm - N/A   Overcast
3:26 AM 37.4 °F - 37.4 °F 100% 30.28 in 1.8 mi Calm Calm - N/A   Overcast
3:37 AM 37.4 °F - 37.4 °F 100% 30.27 in 3.0 mi Calm Calm - N/A   Overcast
3:53 AM 37.9 °F - 37.0 °F 97% 30.27 in 10.0 mi Calm Calm - N/A   Overcast
4:00 AM 37.4 °F - 35.6 °F 93% 30.27 in 3.0 mi Calm Calm - N/A   Mostly Cloudy
4:03 AM 37.4 °F - 37.4 °F 100% 30.27 in 1.5 mi Calm Calm - N/A   Mostly Cloudy
4:07 AM 37.4 °F - 37.4 °F 100% 30.27 in 0.5 mi Calm Calm - N/A Fog Fog
4:53 AM 37.9 °F - 37.9 °F 100% 30.27 in 0.2 mi Calm Calm - N/A Fog Fog
5:14 AM 39.2 °F - 39.2 °F 100% 30.26 in 0.5 mi Calm Calm - N/A Fog Fog
5:44 AM 39.2 °F - 37.4 °F 93% 30.26 in 1.0 mi Calm Calm - N/A   Overcast
5:53 AM 39.9 °F - 39.0 °F 97% 30.26 in 1.0 mi Calm Calm - N/A   Overcast
6:08 AM 39.2 °F - 39.2 °F 100% 30.25 in 0.8 mi Calm Calm - N/A   Scattered Clouds
6:19 AM 39.2 °F - 37.4 °F 93% 30.25 in 0.5 mi Calm Calm - N/A Fog Fog
6:35 AM 37.4 °F - 37.4 °F 100% 30.25 in 0.8 mi Calm Calm - N/A   Scattered Clouds
6:44 AM 37.4 °F - 37.4 °F 100% 30.24 in 1.5 mi Calm Calm - N/A   Partly Cloudy
6:49 AM 37.4 °F - 37.4 °F 100% 30.24 in 3.0 mi Calm Calm - N/A   Partly Cloudy
6:53 AM 39.0 °F 36.8 °F 37.0 °F 93% 30.25 in 6.0 mi ENE 3.5 mph - N/A   Overcast
7:43 AM 37.4 °F 34.9 °F 35.6 °F 93% 30.23 in 10.0 mi NE 3.5 mph - N/A   Mostly Cloudy
7:53 AM 36.0 °F - 35.1 °F 97% 30.23 in 10.0 mi Calm Calm - N/A   Mostly Cloudy
8:12 AM 35.6 °F - 33.8 °F 93% 30.23 in 1.2 mi Calm Calm - N/A   Scattered Clouds
8:25 AM 35.6 °F - 35.6 °F 100% 30.23 in 3.0 mi Calm Calm - N/A   Scattered Clouds
8:36 AM 35.6 °F - 33.8 °F 93% 30.23 in 1.5 mi Calm Calm - N/A   Mostly Cloudy
8:43 AM 35.6 °F - 33.8 °F 93% 30.23 in 6.0 mi Calm Calm - N/A   Mostly Cloudy
8:46 AM 35.6 °F - 33.8 °F 93% 30.23 in 0.2 mi Calm Calm - N/A Fog Fog
8:53 AM 36.0 °F - 35.1 °F 97% 30.23 in 0.2 mi Calm Calm - N/A Fog Fog
9:13 AM 37.4 °F - 37.4 °F 100% 30.23 in 0.2 mi Calm Calm - N/A Fog Fog
9:20 AM 39.2 °F - 39.2 °F 100% 30.23 in 0.2 mi Calm Calm - N/A Fog Fog
9:30 AM 39.2 °F - 39.2 °F 100% 30.23 in 0.2 mi Calm Calm - N/A Fog Fog
9:53 AM 42.1 °F - 41.0 °F 96% 30.23 in 0.2 mi Calm Calm - N/A Fog Fog
10:25 AM 42.8 °F - 42.8 °F 100% 30.23 in 0.2 mi Calm Calm - N/A Fog Fog
10:53 AM 44.1 °F 42.5 °F 43.0 °F 96% 30.24 in 0.5 mi ENE 3.5 mph - N/A Fog Fog
11:33 AM 46.4 °F - 44.6 °F 93% 30.23 in 1.0 mi Calm Calm - N/A   Overcast
11:47 AM 46.4 °F - 44.6 °F 93% 30.22 in 0.5 mi Calm Calm - N/A Fog Fog
11:53 AM 46.0 °F - 45.0 °F 96% 30.22 in 0.5 mi Calm Calm - N/A Fog Fog
12:13 PM 46.4 °F - 44.6 °F 93% 30.22 in 0.8 mi Calm Calm - N/A   Scattered Clouds
12:19 PM 46.4 °F - 44.6 °F 93% 30.22 in 6.0 mi Calm Calm - N/A   Partly Cloudy
12:53 PM 46.9 °F - 46.0 °F 97% 30.22 in 6.0 mi Calm Calm - N/A   Partly Cloudy
12:58 PM 46.4 °F - 46.4 °F 100% 30.21 in 10.0 mi Calm Calm - N/A   Mostly Cloudy
1:33 PM 51.8 °F - 46.4 °F 82% 30.21 in 10.0 mi Variable 3.5 mph - N/A   Scattered Clouds
1:53 PM 53.1 °F - 46.0 °F 77% 30.20 in 10.0 mi West 8.1 mph - N/A   Scattered Clouds
2:53 PM 53.1 °F - 46.9 °F 80% 30.18 in 10.0 mi Variable 3.5 mph - N/A   Partly Cloudy
3:53 PM 54.0 °F - 46.9 °F 77% 30.18 in 10.0 mi East 3.5 mph - N/A   Scattered Clouds
4:53 PM 55.0 °F - 46.9 °F 74% 30.16 in 10.0 mi ENE 4.6 mph - N/A   Scattered Clouds
5:34 PM 51.8 °F - 46.4 °F 82% 30.16 in 10.0 mi ESE 5.8 mph - N/A   Mostly Cloudy
5:53 PM 52.0 °F - 46.0 °F 80% 30.16 in 10.0 mi WSW 6.9 mph - N/A   Mostly Cloudy
6:53 PM 48.9 °F - 46.0 °F 90% 30.14 in 10.0 mi South 3.5 mph - N/A   Mostly Cloudy
7:53 PM 48.0 °F - 46.0 °F 93% 30.15 in 10.0 mi Calm Calm - N/A   Overcast
8:53 PM 48.0 °F - 46.0 °F 93% 30.14 in 10.0 mi Calm Calm - N/A   Overcast
9:53 PM 46.9 °F - 44.1 °F 90% 30.14 in 10.0 mi Calm Calm - N/A   Overcast
10:53 PM 46.0 °F - 45.0 °F 96% 30.14 in 7.0 mi Calm Calm - 0.00 in Rain Light Rain